Location: Newark
(48.4472°N, 1.4892°E)
Time: 13:56:50
(UTC+00:00)

Transit 4A - Pass Details

Date: 19 January 2021
Orbit: 866 x 978 km, 66.8° (Epoch: 01 March)

Event Time Altitude Azimuth Distance (km) Brightness Sun altitude
Exits shadow 05:21:59 43° 288° (WNW) 1,280 8.1 -22.0°
Maximum altitude 05:23:30 54° 243° (WSW) 1,117 8.0 -21.8°
Drops below altitude 10° 05:29:19 10° 168° (SSE) 2,581 10.4 -20.8°
Sets 05:31:49 0° 164° (SSE) 3,502 11.2 -20.4°
